Weather History for Little Rock AFB, AR

Change the Weather History Date:

Thursday, August 8, 2013

  Actual Average Record
Temperature  
Mean Temperature 86 °F -  
Max Temperature 95 °F 90 °F 104 °F (1999)
Min Temperature 76 °F 66 °F 51 °F (1989)
Cooling Degree Days 20    
Growing Degree Days 36 (Base 50)    
Moisture  
Dew Point 77 °F    
Average Humidity 78    
Maximum Humidity 99    
Minimum Humidity 50    
Precipitation  
Precipitation 0.00 in - - ()
Sea Level Pressure  
Sea Level Pressure 29.89 in    
Wind  
Wind Speed 4 mph (East)    
Max Wind Speed 8 mph    
Max Gust Speed -    
Visibility 10 miles    
Events Rain , Thunderstorm    
Averages and records for this station are not official NWS values.
T = Trace of Precipitation, MM = Missing Value Source: NWS Daily Summary

Daily Weather History Graph

Daily Weather History Graph

Search for Another Location

Airport:

Trip Planner

Search our weather history database for the weather conditions in past years. The results will help you decide how hot, cold, wet, or windy it might be!

Date:

Astronomy

Aug. 08, 2013 Rise Set
Actual Time 6:23 AM CDT 8:04 PM CDT
Civil Twilight 5:56 AM CDT 8:31 PM CDT
Nautical Twilight 5:23 AM CDT 9:04 PM CDT
Astronomical Twilight 4:48 AM CDT 9:38 PM CDT
Moon 8:04 AM CDT (8/8) 8:50 PM CDT (8/8)
Length of Visible Light 14h 34m
Length of Day
13h 40m
Waxing Crescent, 3% of the Moon is Illuminated
Aug 8
Waxing Crescent
Aug 14
First Quarter
Aug 20
Full
Aug 28
Last Quarter
Sep 5
New

Hourly Weather History & Observations

Time (CDT) Temp. Heat Index Dew Point Humidity Pressure Visibility Wind Dir Wind Speed Gust Speed Precip Events Conditions
12:58 AM 79.9 °F - 76.5 °F 89% 29.91 in 10.0 mi ENE 3.5 mph - N/A   Clear
1:58 AM 78.6 °F - 76.3 °F 92% 29.89 in 10.0 mi NE 4.6 mph - N/A   Clear
2:58 AM 77.4 °F - 75.9 °F 95% 29.87 in 10.0 mi ENE 2.3 mph - N/A   Clear
3:58 AM 77.5 °F - 77.0 °F 98% 29.89 in 10.0 mi ENE 2.3 mph - N/A   Scattered Clouds
4:58 AM 77.0 °F - 76.6 °F 99% 29.89 in 10.0 mi East 4.6 mph - N/A   Clear
5:58 AM 76.8 °F - 76.3 °F 98% 29.88 in 10.0 mi North 4.6 mph - N/A   Clear
6:58 AM 76.8 °F - 76.5 °F 99% 29.90 in 10.0 mi East 3.5 mph - N/A   Clear
7:58 AM 78.1 °F - 77.0 °F 96% 29.91 in 10.0 mi East 1.2 mph - N/A   Clear
8:58 AM 80.8 °F 86.9 °F 75.7 °F 85% 29.94 in 10.0 mi West 8.1 mph - N/A   Partly Cloudy
9:58 AM 81.1 °F 87.2 °F 75.0 °F 82% 29.94 in 10.0 mi NE 3.5 mph - N/A   Clear
10:58 AM 83.5 °F 90.6 °F 74.5 °F 74% 29.93 in 10.0 mi East 4.6 mph - N/A   Clear
11:58 AM 86.5 °F 95.5 °F 75.0 °F 68% 29.93 in 10.0 mi ENE 6.9 mph - N/A   Partly Cloudy
12:58 PM 89.6 °F 99.8 °F 74.8 °F 62% 29.91 in 10.0 mi East 4.6 mph - N/A   Partly Cloudy
1:58 PM 91.4 °F 103.1 °F 75.6 °F 60% 29.89 in 10.0 mi East 8.1 mph - N/A   Scattered Clouds
2:58 PM 91.4 °F 105.1 °F 77.0 °F 63% 29.88 in 10.0 mi Variable 4.6 mph - N/A   Partly Cloudy
3:58 PM 93.7 °F 109.4 °F 77.7 °F 60% 29.87 in 10.0 mi South 6.9 mph - N/A   Clear
4:58 PM 94.8 °F 110.1 °F 77.5 °F 57% 29.86 in 10.0 mi SE 5.8 mph - N/A   Clear
5:58 PM 95.4 °F 106.1 °F 73.9 °F 50% 29.85 in 10.0 mi SW 3.5 mph - N/A   Clear
6:58 PM 94.3 °F 110.2 °F 77.7 °F 59% 29.85 in 10.0 mi East 1.2 mph - N/A   Clear
7:58 PM 88.7 °F 104.6 °F 79.5 °F 74% 29.85 in 10.0 mi SE 1.2 mph - N/A   Partly Cloudy
8:58 PM 85.8 °F 97.8 °F 77.7 °F 77% 29.86 in 10.0 mi East 3.5 mph - N/A   Clear
9:08 PM 84.2 °F 96.1 °F 78.8 °F 84% 29.88 in 10.0 mi East 3.5 mph - N/A   Light Drizzle
9:12 PM 84.2 °F 96.1 °F 78.8 °F 84% 29.88 in 10.0 mi ESE 2.3 mph - N/A   Clear
9:58 PM 84.6 °F 95.1 °F 77.4 °F 79% 29.90 in 10.0 mi SSE 3.5 mph - 0.00 in   Partly Cloudy
10:07 PM 86.0 °F 95.1 °F 75.2 °F 70% 29.90 in 10.0 mi South 3.5 mph - N/A Thunderstorm Thunderstorm
10:55 PM 86.0 °F 95.1 °F 75.2 °F 70% 29.90 in 5.0 mi South 3.5 mph - N/A Rain , Thunderstorm Light Thunderstorms and Rain
11:58 PM 74.1 °F - 72.3 °F 94% 29.99 in 10.0 mi NE 12.7 mph - 0.00 in Thunderstorm Mostly Cloudy